Pontiac, MI

4:16 AM EDT on May 21, 2018 (GMT -0400)
Oakland County International

Weather History for KPTK - July, 2013

Change the Weather History Date:

Wednesday, July 10, 2013

  Actual Average Record
Temperature  
Mean Temperature 78 °F -  
Max Temperature 88 °F 80 °F 93 °F (2007)
Min Temperature 66 °F 58 °F 50 °F (1996)
Cooling Degree Days 14    
Growing Degree Days 28 (Base 50)    
Moisture  
Dew Point 69 °F    
Average Humidity 79    
Maximum Humidity 100    
Minimum Humidity 49    
Precipitation  
Precipitation 0.72 in - - ()
Sea Level Pressure  
Sea Level Pressure 29.83 in    
Wind  
Wind Speed 7 mph (West)    
Max Wind Speed 17 mph    
Max Gust Speed 24 mph    
Visibility 7 miles    
Events Rain    
Averages and records for this station are not official NWS values.
T = Trace of Precipitation, MM = Missing Value Source: NWS Daily Summary

Daily Weather History Graph

Daily Weather History Graph

Search for Another Location

Airport or City:

Astronomy

Jul. 10, 2013 Rise Set
Actual Time 6:05 AM EDT 9:12 PM EDT
Civil Twilight 5:31 AM EDT 9:46 PM EDT
Nautical Twilight 4:47 AM EDT 10:30 PM EDT
Astronomical Twilight 3:54 AM EDT 11:22 PM EDT
Moon 8:29 AM EDT (7/10) 10:16 PM EDT (7/10)
Length of Visible Light 16h 15m
Length of Day
15h 06m
Waxing Crescent, 5% of the Moon is Illuminated
Jul 10
Waxing Crescent
Jul 15
First Quarter
Jul 22
Full
Jul 29
Last Quarter
Aug 6
New

Hourly Weather History & Observations

Time (EDT) Temp. Heat Index Dew Point Humidity Pressure Visibility Wind Dir Wind Speed Gust Speed Precip Events Conditions
12:17 AM 73.4 °F - 69.8 °F 88% 29.88 in 2.0 mi South 5.8 mph - 0.09 in Rain Light Rain
12:26 AM 73.4 °F - 69.8 °F 88% 29.89 in 9.0 mi SW 8.1 mph - 0.10 in Rain Light Rain
12:53 AM 73.0 °F - 70.0 °F 90% 29.84 in 7.0 mi Calm Calm - 0.12 in Rain Light Rain
1:00 AM 73.4 °F - 69.8 °F 88% 29.86 in 10.0 mi Calm Calm - 0.00 in Rain Light Rain
1:07 AM 73.4 °F - 69.8 °F 88% 29.86 in 1.5 mi South 9.2 mph - 0.16 in Rain Light Rain
1:30 AM 73.4 °F - 71.6 °F 94% 29.86 in 2.5 mi SSW 4.6 mph - 0.39 in Rain Heavy Rain
1:41 AM 71.6 °F - 71.6 °F 100% 29.85 in 1.2 mi North 3.5 mph - 0.57 in Rain Heavy Rain
1:48 AM 71.6 °F - 71.6 °F 100% 29.85 in 2.0 mi SE 3.5 mph - 0.60 in Rain Rain
1:51 AM 73.4 °F - 71.6 °F 94% 29.86 in 3.0 mi Variable 3.5 mph - 0.60 in Rain Light Rain
1:53 AM 73.0 °F - 71.1 °F 93% 29.84 in 4.0 mi WNW 5.8 mph - 0.60 in Rain Light Rain
2:04 AM 73.4 °F - 71.6 °F 94% 29.85 in 9.0 mi SW 6.9 mph - 0.00 in   Overcast
2:53 AM 73.9 °F - 72.0 °F 93% 29.82 in 6.0 mi SW 5.8 mph - 0.00 in   Overcast
3:04 AM 73.4 °F - 71.6 °F 94% 29.84 in 6.0 mi SW 4.6 mph - N/A   Overcast
3:53 AM 73.9 °F - 72.0 °F 93% 29.81 in 5.0 mi SSW 4.6 mph - N/A   Overcast
4:50 AM 73.4 °F - 71.6 °F 94% 29.83 in 5.0 mi SW 6.9 mph - N/A   Overcast
4:53 AM 73.9 °F - 72.0 °F 93% 29.81 in 5.0 mi SW 5.8 mph - N/A   Overcast
5:53 AM 75.0 °F - 73.0 °F 94% 29.80 in 5.0 mi SW 4.6 mph - N/A   Overcast
6:01 AM 75.2 °F - 73.4 °F 94% 29.83 in 2.5 mi SW 4.6 mph - N/A   Overcast
6:35 AM 75.2 °F - 73.4 °F 94% 29.83 in 4.0 mi West 6.9 mph - N/A   Overcast
6:44 AM 75.2 °F - 73.4 °F 94% 29.83 in 4.0 mi WSW 5.8 mph - N/A   Overcast
6:53 AM 75.0 °F - 73.0 °F 94% 29.81 in 4.0 mi West 6.9 mph - N/A   Overcast
7:27 AM 75.2 °F - 73.4 °F 94% 29.83 in 6.0 mi West 10.4 mph - N/A   Mostly Cloudy
7:53 AM 77.0 °F - 72.0 °F 84% 29.81 in 8.0 mi West 12.7 mph - N/A   Scattered Clouds
8:11 AM 77.0 °F - 71.6 °F 83% 29.83 in 8.0 mi West 10.4 mph - N/A   Mostly Cloudy
8:30 AM 77.0 °F - 71.6 °F 83% 29.83 in 9.0 mi West 11.5 mph - N/A   Scattered Clouds
8:53 AM 79.0 °F - 71.1 °F 77% 29.81 in 10.0 mi WNW 9.2 mph - N/A   Scattered Clouds
9:53 AM 81.0 °F 84.4 °F 70.0 °F 69% 29.80 in 10.0 mi WSW 8.1 mph - N/A   Scattered Clouds
10:53 AM 82.0 °F 85.9 °F 70.0 °F 67% 29.81 in 10.0 mi SW 10.4 mph - N/A   Scattered Clouds
11:53 AM 84.0 °F 88.4 °F 70.0 °F 63% 29.79 in 10.0 mi WSW 10.4 mph - N/A   Scattered Clouds
12:53 PM 86.0 °F 90.7 °F 70.0 °F 59% 29.78 in 10.0 mi West 13.8 mph - N/A   Mostly Cloudy
1:53 PM 87.1 °F 90.6 °F 68.0 °F 53% 29.77 in 10.0 mi West 12.7 mph - N/A   Scattered Clouds
2:53 PM 88.0 °F 90.7 °F 66.9 °F 49% 29.77 in 10.0 mi West 13.8 mph - N/A   Mostly Cloudy
3:53 PM 82.9 °F 85.8 °F 68.0 °F 60% 29.77 in 10.0 mi SW 9.2 mph - N/A   Mostly Cloudy
4:53 PM 84.0 °F 87.0 °F 68.0 °F 58% 29.77 in 10.0 mi NW 17.3 mph 23.0 mph 0.00 in   Mostly Cloudy
5:53 PM 82.9 °F 84.6 °F 64.9 °F 54% 29.77 in 10.0 mi NNW 17.3 mph 24.2 mph N/A   Scattered Clouds
6:53 PM 79.0 °F - 60.1 °F 52% 29.80 in 10.0 mi NW 15.0 mph 23.0 mph N/A   Scattered Clouds
7:53 PM 75.9 °F - 59.0 °F 56% 29.84 in 10.0 mi NW 12.7 mph 19.6 mph N/A   Mostly Cloudy
8:53 PM 73.0 °F - 55.9 °F 55% 29.88 in 10.0 mi North 8.1 mph - N/A   Scattered Clouds
9:53 PM 71.1 °F - 55.0 °F 57% 29.90 in 10.0 mi North 8.1 mph - N/A   Partly Cloudy
10:53 PM 69.1 °F - 55.0 °F 61% 29.92 in 10.0 mi North 6.9 mph - N/A   Clear
11:53 PM 66.9 °F - 55.0 °F 66% 29.94 in 10.0 mi NNW 3.5 mph - N/A   Clear